LEMUR-2-JINDRA (46909 NORAD) Tracking and Keplerian Element Data

This shows tracking and keplerian element data for the satellite.

Feedback or suggestion? Click here.




ElementValue
Catalog46909
NameLEMUR-2-JINDRA
Epoch Orbit227
Epoch Day327.49782576
Epoch Year2020
RAAN10.524
Inclination36.9017
Eccentricity0.0006723
Argument of Perigee95.1175
Mean Anonmoly265.0341
Mean Motion14.98864264
Decay Rate1.446E-05
L11 46909U 20081E 20327.49782576 .00001446 00000-0 12380-3 0 9993
L22 46909 36.9017 10.5240 0006723 95.1175 265.0341 14.98864264 2278

Live tracking and technical data element details for LEMUR-2-JINDRA (NORAD 46909). LEMUR-2-JINDRA can be tracked NOW for your location showing map with azimuth and elevation plus other details from your city location.

Track the satellite on the map from your city or location and see movement details for azimuth, elevation, latitude, longitude, range, height, and movement on the map or in text.







IsCatalogInMostPopularTable: catalog: 46909, numindb: 4
Update: records affected: 1



GetName: 46909 LEMUR-2-JINDRA

Hit Count: updated at: Tue, 24 Nov 2020 12:16:58 GMT